Location: Blackrock Ranger Station
(36.0936°N, 118.2611°W)
Time: 07:49:03
(UTC-07:00)

AO-7 - Pass Details

Date: 24 February 2026
Orbit: 1440 x 1458 km, 102.0° (Epoch: 15 March)

Event Time Altitude Azimuth Distance (km) Brightness Sun altitude
Rises 18:14:30 0° 184° (S) 4,512 ? -7.0°
Reaches altitude 10° 18:17:28 10° 191° (S) 3,539 ? -7.6°
Maximum altitude 18:25:06 41° 259° (W) 1,971 ? -9.2°
Drops below altitude 10° 18:32:50 10° 328° (NNW) 3,565 ? -10.7°
Sets 18:35:52 0° 336° (NNW) 4,549 ? -11.3°
